Change the Weather History Date:

Thursday, June 13, 2013

  Actual Average Record
Temperature  
Mean Temperature 64 °F 63 °F  
Max Temperature 77 °F 75 °F 101 °F (1979)
Min Temperature 51 °F 52 °F 32 °F (1942)
Cooling Degree Days 0 2  
Month to date cooling degree days 2 22  
Year to date cooling degree days 12 38  
Since 1 June cooling degree days 2 22  
Growing Degree Days 15 (Base 50)    
Moisture  
Dew Point 51 °F    
Average Humidity 64    
Maximum Humidity 89    
Minimum Humidity 38    
Precipitation  
Precipitation 0.00 in 0.13 in 1.54 in (1965)
Month to date precipitation 2.89 1.56  
Year to date precipitation 11.26 6.95  
Sea Level Pressure  
Sea Level Pressure 30.04 in    
Wind  
Wind Speed 10 mph (SE)    
Max Wind Speed 22 mph    
Max Gust Speed 28 mph    
Visibility 10 miles    
Events      
T = Trace of Precipitation, MM = Missing Value Source: NWS Daily Summary

Daily Weather History Graph

Daily Weather History Graph

Search for Another Location

Airport or City:

Trip Planner

Search our weather history database for the weather conditions in past years. The results will help you decide how hot, cold, wet, or windy it might be!

Date:

Astronomy

Jun. 13, 2013 Rise Set
Actual Time 5:43 AM CDT 9:46 PM CDT
Civil Twilight 5:02 AM CDT 10:28 PM CDT
Nautical Twilight 4:04 AM CDT 11:26 PM CDT
Astronomical Twilight 2:23 AM CDT 1:08 AM CDT
Moon 10:41 AM CDT (6/13) 12:06 AM CDT (6/13)
Length of Visible Light 17h 25m
Length of Day
16h 02m
Waxing Crescent, 22% of the Moon is Illuminated
Jun 13
Waxing Crescent
Jun 16
First Quarter
Jun 23
Full
Jun 29
Last Quarter
Jul 8
New

Hourly Weather History & Observations

Time (CDT) Temp. Dew Point Humidity Pressure Visibility Wind Dir Wind Speed Gust Speed Precip Events Conditions
12:54 AM 57.9 °F 51.1 °F 78% 30.13 in 10.0 mi Calm Calm - N/A   Clear
1:54 AM 59.0 °F 51.1 °F 75% 30.13 in 10.0 mi SSW 3.5 mph - N/A   Clear
2:54 AM 57.0 °F 51.1 °F 81% 30.14 in 10.0 mi SW 6.9 mph - N/A   Clear
3:54 AM 55.9 °F 50.0 °F 80% 30.13 in 10.0 mi Calm Calm - N/A   Clear
4:54 AM 53.1 °F 50.0 °F 89% 30.11 in 10.0 mi ENE 5.8 mph - N/A   Clear
5:54 AM 54.0 °F 50.0 °F 86% 30.11 in 10.0 mi Calm Calm - N/A   Clear
6:54 AM 55.0 °F 52.0 °F 89% 30.12 in 10.0 mi Calm Calm - N/A   Clear
7:54 AM 59.0 °F 54.0 °F 83% 30.12 in 10.0 mi SSE 4.6 mph - N/A   Clear
8:54 AM 62.1 °F 54.0 °F 75% 30.12 in 10.0 mi ESE 8.1 mph - N/A   Clear
11:54 AM 73.0 °F 48.9 °F 42% 30.08 in 10.0 mi SE 12.7 mph - N/A   Clear
12:54 PM 73.9 °F 48.9 °F 41% 30.06 in 10.0 mi SE 15.0 mph - N/A   Clear
1:54 PM 75.0 °F 48.0 °F 38% 30.04 in 10.0 mi SE 15.0 mph - N/A   Clear
2:54 PM 75.9 °F 48.9 °F 38% 30.02 in 10.0 mi SE 17.3 mph 27.6 mph N/A   Clear
3:54 PM 75.9 °F 51.1 °F 42% 30.00 in 10.0 mi ESE 16.1 mph 24.2 mph N/A   Clear
4:54 PM 77.0 °F 51.1 °F 40% 29.98 in 10.0 mi SE 18.4 mph 24.2 mph N/A   Clear
5:54 PM 73.9 °F 51.1 °F 45% 29.97 in 10.0 mi SE 15.0 mph - N/A   Clear
6:54 PM 73.9 °F 52.0 °F 46% 29.96 in 10.0 mi ESE 15.0 mph 21.9 mph N/A   Clear
7:54 PM 73.0 °F 53.1 °F 49% 29.96 in 10.0 mi ESE 12.7 mph - N/A   Clear
8:54 PM 71.1 °F 52.0 °F 51% 29.95 in 10.0 mi SE 15.0 mph - N/A   Clear
9:54 PM 70.0 °F 52.0 °F 53% 29.93 in 10.0 mi SE 12.7 mph 18.4 mph N/A   Mostly Cloudy
10:54 PM 68.0 °F 53.1 °F 59% 29.91 in 10.0 mi ESE 11.5 mph - N/A   Overcast
11:54 PM 68.0 °F 53.1 °F 59% 29.88 in 10.0 mi ESE 13.8 mph - N/A   Overcast